This is the latest recevied weather packets stored in our database for station/object KI5PFS. If no packets are shown the sender has not sent any weather packets the latest 10 day(s).
| Time | Temp. | Humidity | Pressure | Rain* | Wind** | Luminosity | Snow |
|---|---|---|---|---|---|---|---|
| 1777642804 | 13.89° C | 73% | 1013.8 hPa | 0 mm | - | - | - |
| 1777642204 | 13.89° C | 78% | 1013.9 hPa | 0 mm | - | - | - |
| 1777641604 | 13.89° C | 78% | 1014.4 hPa | 0 mm | - | - | - |
| 1777641004 | 13.89° C | 74% | 1014.5 hPa | 0 mm | - | - | - |
| 1777640403 | 13.89° C | 77% | 1014.2 hPa | 0 mm | - | - | - |
| 1777639804 | 13.89° C | 78% | 1013.8 hPa | 0 mm | - | - | - |
| 1777639204 | 13.89° C | 80% | 1013.7 hPa | 0 mm | - | - | - |
| 1777638603 | 13.89° C | 81% | 1013.2 hPa | 0 mm | - | - | - |
| 1777638003 | 13.89° C | 80% | 1012.8 hPa | 0 mm | - | - | - |
| 1777637404 | 13.89° C | 80% | 1012.6 hPa | 0 mm | - | - | - |
| 1777636803 | 13.89° C | 81% | 1012.7 hPa | 0 mm | - | - | - |
| 1777636204 | 13.89° C | 80% | 1012.2 hPa | 0 mm | - | - | - |
| 1777635603 | 13.89° C | 81% | 1012.4 hPa | 0 mm | - | - | - |
| 1777635004 | 13.89° C | 80% | 1012.4 hPa | 0 mm | - | - | - |
| 1777634403 | 13.89° C | 79% | 1012.7 hPa | 0 mm | - | - | - |
| 1777633803 | 13.89° C | 78% | 1012.5 hPa | 0 mm | - | - | - |
| 1777633203 | 13.89° C | 78% | 1012.6 hPa | 0 mm | - | - | - |
| 1777632603 | 13.89° C | 77% | 1012.4 hPa | 0 mm | - | - | - |
| 1777632003 | 13.89° C | 78% | 1012.4 hPa | 0 mm | - | - | - |
| 1777631403 | 13.89° C | 77% | 1012.5 hPa | 0 mm | - | - | - |
| 1777630804 | 13.89° C | 77% | 1012.4 hPa | 0 mm | - | - | - |
| 1777630203 | 13.89° C | 77% | 1012.6 hPa | 0 mm | - | - | - |
| 1777629603 | 13.89° C | 79% | 1012.7 hPa | 0 mm | - | - | - |
| 1777629003 | 13.89° C | 80% | 1012.7 hPa | 0 mm | - | - | - |
| 1777628403 | 13.89° C | 80% | 1012.6 hPa | 0 mm | - | - | - |
* Rain latest hour (hover to see other rain measurements)
** Current wind speed in m/s (hover to see current wind gust speed)